Mount Pleasant, TN

9:53 AM CST on December 05, 2016 (GMT -0600)
Maury County

Weather History for KMRC - January, 2014

Change the Weather History Date:

Saturday, January 4, 2014

  Actual Average (KBNA) Record (KBNA)
Temperature  
Mean Temperature 34 °F 38 °F  
Max Temperature 44 °F 47 °F 75 °F (2004)
Min Temperature 23 °F 29 °F -3 °F (1879)
Degree Days  
Heating Degree Days 32    
Month to date heating degree days  
Since 1 July heating degree days  
Cooling Degree Days 0    
Month to date cooling degree days  
Year to date cooling degree days  
Moisture  
Dew Point 22 °F    
Average Humidity 59    
Maximum Humidity 81    
Minimum Humidity 45    
Precipitation  
Precipitation 0.00 in 0.12 in 1.73 in (1939)
Month to date precipitation 0.46  
Year to date precipitation 0.46  
Sea Level Pressure  
Sea Level Pressure 30.16 in    
Wind  
Wind Speed 8 mph (South)    
Max Wind Speed 16 mph    
Max Gust Speed 23 mph    
Visibility 10 miles    
Events      
T = Trace of Precipitation, MM = Missing Value Source: NWS Daily Summary

Daily Weather History Graph

Daily Weather History Graph

Search for Another Location

Airport or City:

Trip Planner

Search our weather history database for the weather conditions in past years. The results will help you decide how hot, cold, wet, or windy it might be!

Date:

Astronomy

Jan. 04, 2014 Rise Set
Actual Time 6:58 AM CST 4:49 PM CST
Civil Twilight 6:30 AM CST 5:17 PM CST
Nautical Twilight 5:58 AM CST 5:49 PM CST
Astronomical Twilight 5:27 AM CST 6:19 PM CST
Moon 9:12 AM CST (1/4) 8:58 PM CST (1/4)
Length of Visible Light 10h 46m
Length of Day
9h 50m
Waxing Crescent, 15% of the Moon is Illuminated
Jan 4
Waxing Crescent
Jan 7
First Quarter
Jan 15
Full
Jan 23
Last Quarter
Jan 30
New

Hourly Weather History & Observations

Time (CST) Temp. Windchill Dew Point Humidity Pressure Visibility Wind Dir Wind Speed Gust Speed Precip Events Conditions
12:35 AM 23.0 °F 18.4 °F 14.0 °F 68% 30.24 in 10.0 mi South 3.5 mph - N/A   Clear
12:55 AM 24.8 °F 17.9 °F 14.0 °F 64% 30.23 in 10.0 mi South 5.8 mph - N/A   Clear
1:15 AM 24.8 °F 19.1 °F 12.2 °F 59% 30.24 in 10.0 mi Variable 4.6 mph - N/A   Clear
1:35 AM 24.8 °F 17.9 °F 14.0 °F 64% 30.25 in 10.0 mi South 5.8 mph - N/A   Clear
1:55 AM 24.8 °F 19.1 °F 15.8 °F 69% 30.25 in 10.0 mi South 4.6 mph - N/A   Clear
2:15 AM 24.8 °F 16.9 °F 14.0 °F 64% 30.27 in 10.0 mi South 6.9 mph - N/A   Clear
2:35 AM 24.8 °F 16.9 °F 15.8 °F 69% 30.27 in 10.0 mi South 6.9 mph - N/A   Clear
2:55 AM 24.8 °F 16.9 °F 15.8 °F 69% 30.27 in 10.0 mi South 6.9 mph - N/A   Clear
3:15 AM 24.8 °F 16.1 °F 15.8 °F 69% 30.26 in 10.0 mi South 8.1 mph - N/A   Clear
3:35 AM 24.8 °F 15.3 °F 15.8 °F 69% 30.27 in 10.0 mi South 9.2 mph - N/A   Clear
3:55 AM 24.8 °F 16.1 °F 15.8 °F 69% 30.26 in 10.0 mi South 8.1 mph - N/A   Clear
4:15 AM 24.8 °F 14.6 °F 15.8 °F 69% 30.26 in 10.0 mi South 10.4 mph - N/A   Clear
4:35 AM 26.6 °F 19.1 °F 15.8 °F 64% 30.26 in 10.0 mi South 6.9 mph - N/A   Clear
4:55 AM 26.6 °F 17.5 °F 15.8 °F 64% 30.26 in 10.0 mi South 9.2 mph - N/A   Clear
5:15 AM 26.6 °F 19.1 °F 15.8 °F 64% 30.26 in 10.0 mi South 6.9 mph - N/A   Clear
5:35 AM 26.6 °F 17.5 °F 15.8 °F 64% 30.26 in 10.0 mi South 9.2 mph - N/A   Clear
5:55 AM 24.8 °F 14.6 °F 15.8 °F 69% 30.26 in 10.0 mi South 10.4 mph - N/A   Clear
6:15 AM 26.6 °F 18.2 °F 15.8 °F 64% 30.25 in 10.0 mi South 8.1 mph - N/A   Clear
6:35 AM 24.8 °F 16.9 °F 15.8 °F 69% 30.26 in 10.0 mi South 6.9 mph - N/A   Clear
6:55 AM 24.8 °F 17.9 °F 15.8 °F 69% 30.26 in 10.0 mi South 5.8 mph - N/A   Clear
7:15 AM 24.8 °F 16.1 °F 15.8 °F 69% 30.26 in 10.0 mi South 8.1 mph - N/A   Clear
7:35 AM 28.4 °F 21.2 °F 15.8 °F 59% 30.25 in 10.0 mi South 6.9 mph - N/A   Clear
7:55 AM 28.4 °F 19.1 °F 15.8 °F 59% 30.25 in 10.0 mi South 10.4 mph - N/A   Clear
8:15 AM 30.2 °F 20.8 °F 15.8 °F 55% 30.25 in 10.0 mi South 11.5 mph 23.0 mph N/A   Clear
8:35 AM 32.0 °F 22.5 °F 17.6 °F 55% 30.25 in 10.0 mi South 12.7 mph - N/A   Clear
8:55 AM 33.8 °F 24.3 °F 17.6 °F 52% 30.26 in 10.0 mi South 13.8 mph - N/A   Clear
9:15 AM 33.8 °F 24.3 °F 17.6 °F 52% 30.26 in 10.0 mi South 13.8 mph - N/A   Clear
9:35 AM 35.6 °F 26.6 °F 17.6 °F 48% 30.25 in 10.0 mi South 13.8 mph - N/A   Clear
9:55 AM 35.6 °F 27.1 °F 19.4 °F 52% 30.25 in 10.0 mi South 12.7 mph - N/A   Clear
10:15 AM 37.4 °F 29.8 °F 19.4 °F 48% 30.24 in 10.0 mi South 11.5 mph - N/A   Clear
10:35 AM 39.2 °F 32.0 °F 21.2 °F 49% 30.24 in 10.0 mi South 11.5 mph - N/A   Clear
10:55 AM 39.2 °F 32.5 °F 21.2 °F 49% 30.23 in 10.0 mi South 10.4 mph - N/A   Clear
11:15 AM 41.0 °F 33.9 °F 21.2 °F 45% 30.21 in 10.0 mi SSW 12.7 mph - N/A   Clear
11:35 AM 41.0 °F 34.3 °F 21.2 °F 45% 30.19 in 10.0 mi South 11.5 mph - N/A   Clear
11:55 AM 42.8 °F 35.1 °F 23.0 °F 46% 30.18 in 10.0 mi South 16.1 mph - N/A   Clear
12:15 PM 42.8 °F 35.8 °F 23.0 °F 46% 30.17 in 10.0 mi South 13.8 mph - N/A   Clear
12:35 PM 42.8 °F 35.4 °F 23.0 °F 46% 30.16 in 10.0 mi SSW 15.0 mph - N/A   Clear
12:55 PM 44.6 °F 39.2 °F 24.8 °F 46% 30.15 in 10.0 mi South 10.4 mph - N/A   Clear
1:15 PM 42.8 °F 37.0 °F 24.8 °F 49% 30.14 in 10.0 mi South 10.4 mph - N/A   Clear
1:35 PM 44.6 °F 38.1 °F 24.8 °F 46% 30.13 in 10.0 mi SSE 13.8 mph - N/A   Clear
1:55 PM 44.6 °F 38.8 °F 24.8 °F 46% 30.12 in 10.0 mi South 11.5 mph - N/A   Clear
2:15 PM 44.6 °F 39.7 °F 24.8 °F 46% 30.11 in 10.0 mi SSE 9.2 mph - N/A   Clear
2:35 PM 44.6 °F 38.8 °F 24.8 °F 46% 30.11 in 10.0 mi SSE 11.5 mph - N/A   Clear
2:55 PM 44.6 °F 39.2 °F 24.8 °F 46% 30.11 in 10.0 mi South 10.4 mph - N/A   Clear
3:15 PM 44.6 °F 38.1 °F 24.8 °F 46% 30.10 in 10.0 mi South 13.8 mph - N/A   Clear
3:35 PM 44.6 °F 40.2 °F 24.8 °F 46% 30.10 in 10.0 mi South 8.1 mph - N/A   Clear
3:55 PM 44.6 °F 40.7 °F 24.8 °F 46% 30.10 in 10.0 mi South 6.9 mph - N/A   Clear
4:15 PM 42.8 °F 37.5 °F 24.8 °F 49% 30.09 in 10.0 mi South 9.2 mph - N/A   Clear
4:35 PM 42.8 °F 38.0 °F 24.8 °F 49% 30.08 in 10.0 mi SSE 8.1 mph - N/A   Clear
4:55 PM 39.2 °F 35.0 °F 24.8 °F 56% 30.08 in 10.0 mi SSE 5.8 mph - N/A   Clear
5:15 PM 39.2 °F 35.9 °F 24.8 °F 56% 30.07 in 10.0 mi SSE 4.6 mph - N/A   Clear
5:35 PM 39.2 °F 35.9 °F 24.8 °F 56% 30.07 in 10.0 mi SSE 4.6 mph - N/A   Clear
5:55 PM 37.4 °F 33.8 °F 24.8 °F 60% 30.07 in 10.0 mi SSE 4.6 mph - N/A   Clear
6:15 PM 37.4 °F 31.4 °F 24.8 °F 60% 30.06 in 10.0 mi SSE 8.1 mph - N/A   Clear
6:35 PM 39.2 °F 33.6 °F 24.8 °F 56% 30.05 in 10.0 mi SSE 8.1 mph - N/A   Clear
6:55 PM 39.2 °F 33.6 °F 26.6 °F 61% 30.05 in 10.0 mi SSE 8.1 mph - N/A   Clear
7:15 PM 39.2 °F 33.6 °F 26.6 °F 61% 30.05 in 10.0 mi SSE 8.1 mph - N/A   Clear
7:35 PM 39.2 °F 33.6 °F 26.6 °F 61% 30.05 in 10.0 mi SSE 8.1 mph - N/A   Clear
7:55 PM 39.2 °F 34.2 °F 28.4 °F 65% 30.05 in 10.0 mi South 6.9 mph - N/A   Clear
8:15 PM 39.2 °F 33.0 °F 28.4 °F 65% 30.05 in 10.0 mi SSE 9.2 mph - N/A   Clear
8:35 PM 39.2 °F 32.0 °F 26.6 °F 61% 30.05 in 10.0 mi SSE 11.5 mph - N/A   Clear
8:55 PM 39.2 °F 34.2 °F 28.4 °F 65% 30.05 in 10.0 mi South 6.9 mph - N/A   Clear
9:15 PM 39.2 °F 33.6 °F 28.4 °F 65% 30.06 in 10.0 mi South 8.1 mph - N/A   Clear
9:35 PM 39.2 °F 34.2 °F 28.4 °F 65% 30.06 in 10.0 mi South 6.9 mph - N/A   Clear
9:55 PM 37.4 °F 33.8 °F 28.4 °F 70% 30.06 in 10.0 mi South 4.6 mph - N/A   Clear
10:15 PM 37.4 °F 32.1 °F 30.2 °F 75% 30.06 in 10.0 mi South 6.9 mph - N/A   Clear
10:35 PM 37.4 °F 32.1 °F 30.2 °F 75% 30.06 in 10.0 mi South 6.9 mph - N/A   Clear
10:55 PM 37.4 °F 33.8 °F 30.2 °F 75% 30.06 in 10.0 mi South 4.6 mph - N/A   Clear
11:15 PM 35.6 °F 32.8 °F 30.2 °F 81% 30.06 in 10.0 mi South 3.5 mph - N/A   Clear
11:35 PM 35.6 °F 31.7 °F 30.2 °F 81% 30.06 in 10.0 mi South 4.6 mph - N/A   Clear
11:55 PM 35.6 °F 32.8 °F 30.2 °F 81% 30.07 in 10.0 mi South 3.5 mph - N/A   Mostly Cloudy